GSAT0214 (PRN E05)

Last updated on Oct. 30, 2020, 5:57 a.m. UTC

1 41862U 16069D   20302.96338812  .00000059  00000-0  00000+0 0  9993
2 41862  54.6691 158.1332 0000811 313.9429  46.1573  1.70473213 24570
UTC
Height (km)
Latitude
Longitude
Inclination
Orbital Period
UTC large
Height (km)
Speed (km/s)
/
Latitude / Longitude
Inclination (degrees)
Orbital Period (minutes)
Azimuth
Elevation
Range (km)
Doppler Factor
iOS Compass Heading
iOS Angle

Next 30 passes for location: Hong Kong

Rise time Rise Azimuth (degrees) Set time Set Azimuth (degrees) Duration Max altitude (degrees)

No matching passes for this satellites